| time (UTC) | temp C | wind direction | speed KPH | gust KPH | rain 1hr cm | rain 24hr cm | rain mn cm | humidity % | barometer mb |
| 20260504043015 | 26 | 293 | 3.2 | 9.7 | 0.00 | 0.00 | 0.00 | 48 | 1013.4 |
| 20260504041517 | 26 | 293 | 8.0 | 14.5 | 0.00 | 0.00 | 0.00 | 47 | 1013.3 |
| 20260504040016 | 26 | 293 | 6.4 | 12.9 | 0.00 | 0.00 | 0.00 | 46 | 1013.0 |
| 20260504034516 | 26 | 293 | 8.0 | 17.7 | 0.00 | 0.00 | 0.00 | 46 | 1013.0 |
| 20260504033016 | 26 | 293 | 8.0 | 17.7 | 0.00 | 0.00 | 0.00 | 45 | 1012.4 |
| 20260504031516 | 27 | 293 | 8.0 | 17.7 | 0.00 | 0.00 | 0.00 | 44 | 1012.2 |
| 20260504030016 | 27 | 293 | 8.0 | 17.7 | 0.00 | 0.00 | 0.00 | 44 | 1012.0 |
| 20260504024517 | 27 | 293 | 8.0 | 17.7 | 0.00 | 0.00 | 0.00 | 43 | 1011.6 |
| 20260504023015 | 27 | 293 | 6.4 | 14.5 | 0.00 | 0.00 | 0.00 | 43 | 1011.3 |
| 20260504021516 | 27 | 293 | 9.7 | 17.7 | 0.00 | 0.00 | 0.00 | 44 | 1011.4 |
| 20260504020016 | 28 | 293 | 9.7 | 17.7 | 0.00 | 0.00 | 0.00 | 42 | 1011.1 |
| 20260504014516 | 28 | 293 | 8.0 | 16.1 | 0.00 | 0.00 | 0.00 | 43 | 1011.0 |
| 20260504013015 | 28 | 293 | 6.4 | 16.1 | 0.00 | 0.00 | 0.00 | 41 | 1011.1 |
| 20260504011517 | 28 | 293 | 8.0 | 14.5 | 0.00 | 0.00 | 0.00 | 40 | 1011.0 |
| 20260504010015 | 29 | 248 | 8.0 | 19.3 | 0.00 | 0.00 | 0.00 | 40 | 1010.5 |
| 20260504004516 | 29 | 248 | 8.0 | 17.7 | 0.00 | 0.00 | 0.00 | 39 | 1010.6 |
| 20260504003015 | 29 | 248 | 11.3 | 25.7 | 0.00 | 0.00 | 0.00 | 38 | 1010.7 |
| 20260504001537 | 30 | 248 | 11.3 | 24.1 | 0.00 | 0.00 | 0.00 | 36 | 1010.6 |
| 20260504000016 | 29 | 293 | 9.7 | 24.1 | 0.00 | 0.00 | 0.00 | 40 | 1010.1 |
| 20260503234516 | 30 | 293 | 9.7 | 20.9 | 0.00 | 0.00 | 0.00 | 45 | 1010.6 |
| 20260503233015 | 30 | 293 | 11.3 | 22.5 | 0.00 | 0.00 | 0.00 | 42 | 1010.4 |
| 20260503231516 | 30 | 293 | 12.9 | 25.7 | 0.00 | 0.00 | 0.00 | 38 | 1010.9 |
| 20260503230016 | 31 | 293 | 12.9 | 24.1 | 0.00 | 0.00 | 0.00 | 36 | 1011.1 |
| 20260503224515 | 31 | 293 | 11.3 | 27.4 | 0.00 | 0.00 | 0.00 | 32 | 1011.1 |
| 20260503223015 | 31 | 293 | 9.7 | 22.5 | 0.00 | 0.00 | 0.00 | 30 | 1010.8 |
| 20260503221536 | 32 | 293 | 8.0 | 17.7 | 0.00 | 0.00 | 0.00 | 29 | 1010.9 |
| 20260503220016 | 32 | 293 | 11.3 | 24.1 | 0.00 | 0.00 | 0.00 | 26 | 1011.1 |
| 20260503214517 | 33 | 248 | 11.3 | 25.7 | 0.00 | 0.00 | 0.00 | 22 | 1011.6 |
| 20260503213016 | 33 | 248 | 9.7 | 22.5 | 0.00 | 0.00 | 0.00 | 19 | 1011.4 |
| 20260503211516 | 34 | 248 | 6.4 | 19.3 | 0.00 | 0.00 | 0.00 | 18 | 1011.7 |
| 20260503210016 | 34 | 203 | 9.7 | 22.5 | 0.00 | 0.00 | 0.00 | 17 | 1011.9 |
| 20260503204537 | 35 | 203 | 11.3 | 25.7 | 0.00 | 0.00 | 0.00 | 16 | 1011.4 |
| 20260503203015 | 34 | 180 | 16.1 | 30.6 | 0.00 | 0.00 | 0.00 | 15 | 1011.5 |
| 20260503201516 | 34 | 158 | 12.9 | 40.2 | 0.00 | 0.00 | 0.00 | 16 | 1011.4 |
| 20260503200015 | 34 | 158 | 11.3 | 30.6 | 0.00 | 0.00 | 0.00 | 15 | 1011.9 |
| 20260503194517 | 33 | 203 | 6.4 | 19.3 | 0.00 | 0.00 | 0.00 | 19 | 1011.9 |
| 20260503193015 | 33 | 225 | 8.0 | 22.5 | 0.00 | 0.00 | 0.00 | 20 | 1012.0 |
| 20260503191515 | 33 | 135 | 8.0 | 20.9 | 0.00 | 0.00 | 0.00 | 21 | 1012.4 |
| 20260503190036 | 33 | 158 | 6.4 | 16.1 | 0.00 | 0.00 | 0.00 | 21 | 1012.6 |
| 20260503184517 | 33 | 90 | 3.2 | 9.7 | 0.00 | 0.00 | 0.00 | 22 | 1012.8 |
| 20260503183015 | 32 | 90 | 4.8 | 24.1 | 0.00 | 0.00 | 0.00 | 23 | 1013.2 |
| 20260503181557 | 32 | 225 | 3.2 | 9.7 | 0.00 | 0.00 | 0.00 | 23 | 1013.2 |
| 20260503180035 | 32 | 225 | 4.8 | 12.9 | 0.00 | 0.00 | 0.00 | 23 | 1013.6 |
| 20260503174515 | 31 | 113 | 3.2 | 11.3 | 0.00 | 0.00 | 0.00 | 23 | 1013.5 |
| 20260503173015 | 31 | 203 | 4.8 | 14.5 | 0.00 | 0.00 | 0.00 | 26 | 1013.5 |
| 20260503171536 | 30 | 113 | 8.0 | 24.1 | 0.00 | 0.00 | 0.00 | 26 | 1013.6 |